Tucson Davis Monthan, AZ

6:18 PM MST on May 24, 2017 (GMT -0700)
Davis-Monthan Air Force Base

Weather History for KDMA - December, 2013

Change the Weather History Date:

Tuesday, December 31, 2013

  Actual Average Record
Temperature  
Mean Temperature 55 °F -  
Max Temperature 70 °F 63 °F 75 °F (1957)
Min Temperature 40 °F 36 °F 24 °F (1969)
Degree Days  
Heating Degree Days 10    
Growing Degree Days 5 (Base 50)    
Moisture  
Dew Point 23 °F    
Average Humidity 34    
Maximum Humidity 60    
Minimum Humidity 13    
Precipitation  
Precipitation 0.00 in - - ()
Sea Level Pressure  
Sea Level Pressure 30.12 in    
Wind  
Wind Speed 8 mph (SE)    
Max Wind Speed 17 mph    
Max Gust Speed -    
Visibility 10 miles    
Events      
Averages and records for this station are not official NWS values.
T = Trace of Precipitation, MM = Missing Value Source: NWS Daily Summary

Daily Weather History Graph

Daily Weather History Graph

Search for Another Location

Airport or City:

Trip Planner

Search our weather history database for the weather conditions in past years. The results will help you decide how hot, cold, wet, or windy it might be!

Date:

Astronomy

Dec. 31, 2013 Rise Set
Actual Time 7:24 AM MST 5:29 PM MST
Civil Twilight 6:57 AM MST 5:56 PM MST
Nautical Twilight 6:26 AM MST 6:26 PM MST
Astronomical Twilight 5:56 AM MST 6:56 PM MST
Moon 6:23 AM MST (12/31) 5:06 PM MST (12/31)
Length of Visible Light 10h 58m
Length of Day
10h 04m
Waning Crescent, 1% of the Moon is Illuminated
Dec 31
Waning Crescent
Jan 1
New
Jan 7
First Quarter
Jan 15
Full
Jan 23
Last Quarter

Hourly Weather History & Observations

Time (MST) Temp. Windchill Dew Point Humidity Pressure Visibility Wind Dir Wind Speed Gust Speed Precip Events Conditions
12:58 AM 40.1 °F - 27.3 °F 60% 30.20 in 10.0 mi South 2.3 mph - N/A   Clear
1:58 AM 42.4 °F 37.5 °F 25.3 °F 51% 30.19 in 10.0 mi SE 8.1 mph - N/A   Clear
2:58 AM 45.1 °F 39.5 °F 23.0 °F 42% 30.18 in 10.0 mi East 11.5 mph - N/A   Clear
3:58 AM 40.5 °F 34.1 °F 24.4 °F 53% 30.18 in 10.0 mi SE 10.4 mph - N/A   Clear
4:58 AM 44.8 °F 39.4 °F 21.6 °F 40% 30.16 in 10.0 mi SE 10.4 mph - N/A   Clear
5:58 AM 46.2 °F 40.5 °F 20.7 °F 36% 30.16 in 10.0 mi ESE 12.7 mph - N/A   Clear
6:58 AM 47.1 °F - 20.3 °F 35% 30.17 in 10.0 mi SE 12.7 mph - N/A   Clear
7:58 AM 46.0 °F 40.6 °F 21.2 °F 37% 30.19 in 10.0 mi SE 11.5 mph - N/A   Clear
8:58 AM 52.5 °F - 21.0 °F 29% 30.18 in 10.0 mi ESE 15.0 mph - N/A   Clear
9:58 AM 58.3 °F - 20.7 °F 23% 30.18 in 10.0 mi ESE 17.3 mph - N/A   Clear
10:58 AM 62.6 °F - 21.2 °F 20% 30.17 in 10.0 mi ESE 11.5 mph - N/A   Clear
11:58 AM 65.8 °F - 21.6 °F 19% 30.13 in 10.0 mi East 12.7 mph - N/A   Clear
12:58 PM 68.5 °F - 19.4 °F 15% 30.09 in 10.0 mi East 11.5 mph - N/A   Clear
1:58 PM 70.2 °F - 19.2 °F 14% 30.05 in 10.0 mi SSE 3.5 mph - N/A   Clear
2:58 PM 70.9 °F - 18.1 °F 13% 30.04 in 10.0 mi Calm Calm - N/A   Clear
3:58 PM 70.3 °F - 19.6 °F 15% 30.04 in 10.0 mi NW 3.5 mph - N/A   Clear
4:58 PM 67.8 °F - 23.5 °F 19% 30.04 in 10.0 mi Calm Calm - N/A   Clear
5:58 PM 61.9 °F - 25.0 °F 25% 30.04 in 10.0 mi NW 6.9 mph - N/A   Clear
6:58 PM 56.5 °F - 25.0 °F 30% 30.07 in 10.0 mi NW 3.5 mph - N/A   Clear
7:58 PM 53.8 °F - 26.8 °F 35% 30.08 in 10.0 mi Calm Calm - N/A   Clear
8:58 PM 48.9 °F - 27.9 °F 44% 30.08 in 10.0 mi South 4.6 mph - N/A   Clear
9:58 PM 46.8 °F - 28.6 °F 49% 30.09 in 10.0 mi SE 8.1 mph - N/A   Clear
10:58 PM 44.1 °F 39.5 °F 27.3 °F 52% 30.08 in 10.0 mi SE 8.1 mph - N/A   Clear
11:58 PM 44.1 °F 39.5 °F 25.7 °F 49% 30.07 in 10.0 mi SE 8.1 mph - N/A   Clear